Year,Month,Day,Hour,Minute,Value (Times are PST for temperature in C)
2018,08,08,00,00,16.70
2018,08,08,00,01,16.70
2018,08,08,00,02,16.70
2018,08,08,00,03,16.60
2018,08,08,00,04,16.60
2018,08,08,00,05,16.60
2018,08,08,00,06,16.60
2018,08,08,00,07,16.60
2018,08,08,00,08,16.60
2018,08,08,00,09,16.60
2018,08,08,00,10,16.60
2018,08,08,00,11,16.60
2018,08,08,00,12,16.50
2018,08,08,00,13,16.40
2018,08,08,00,14,16.40
2018,08,08,00,15,16.40
2018,08,08,00,16,16.40
2018,08,08,00,17,16.40
2018,08,08,00,18,16.40
2018,08,08,00,19,16.40
2018,08,08,00,20,16.40
2018,08,08,00,21,16.40
2018,08,08,00,22,16.40
2018,08,08,00,23,16.40
2018,08,08,00,24,16.40
2018,08,08,00,25,16.40
2018,08,08,00,26,16.30
2018,08,08,00,27,16.30
2018,08,08,00,28,16.30
2018,08,08,00,29,16.30
2018,08,08,00,30,16.30
2018,08,08,00,31,16.30
2018,08,08,00,32,16.30
2018,08,08,00,33,16.30
2018,08,08,00,34,16.20
2018,08,08,00,35,16.20
2018,08,08,00,36,16.20
2018,08,08,00,37,16.20
2018,08,08,00,38,16.20
2018,08,08,00,39,16.10
2018,08,08,00,40,16.10
2018,08,08,00,41,16.10
2018,08,08,00,42,16.10
2018,08,08,00,43,16.10
2018,08,08,00,44,16.10
2018,08,08,00,45,16.10
2018,08,08,00,46,16.10
2018,08,08,00,47,16.10
2018,08,08,00,48,16.10
2018,08,08,00,49,16.10
2018,08,08,00,50,16.10
2018,08,08,00,51,16.10
2018,08,08,00,52,16.10
2018,08,08,00,53,16.10
2018,08,08,00,54,16.10
2018,08,08,00,55,16.10
2018,08,08,00,56,16.10
2018,08,08,00,57,16.10
2018,08,08,00,58,16.10
2018,08,08,00,59,16.10
2018,08,08,01,00,16.10
2018,08,08,01,01,16.00
2018,08,08,01,02,15.90
2018,08,08,01,03,15.90
2018,08,08,01,04,15.90
2018,08,08,01,05,15.90
2018,08,08,01,06,15.90
2018,08,08,01,07,15.90
2018,08,08,01,08,15.90
2018,08,08,01,09,15.90
2018,08,08,01,10,15.80
2018,08,08,01,11,15.80
2018,08,08,01,12,15.80
2018,08,08,01,13,15.80
2018,08,08,01,14,15.80
2018,08,08,01,15,15.80
2018,08,08,01,16,15.80
2018,08,08,01,17,15.80
2018,08,08,01,18,15.80
2018,08,08,01,19,15.80
2018,08,08,01,20,15.80
2018,08,08,01,21,15.80
2018,08,08,01,22,15.80
2018,08,08,01,23,15.80
2018,08,08,01,24,15.80
2018,08,08,01,25,15.80
2018,08,08,01,26,15.80
2018,08,08,01,27,15.80
2018,08,08,01,28,15.80
2018,08,08,01,29,15.80
2018,08,08,01,30,15.80
2018,08,08,01,31,15.80
2018,08,08,01,32,15.80
2018,08,08,01,33,15.70
2018,08,08,01,34,15.70
2018,08,08,01,35,15.70
2018,08,08,01,36,15.70
2018,08,08,01,37,15.70
2018,08,08,01,38,15.70
2018,08,08,01,39,15.70
2018,08,08,01,40,15.60
2018,08,08,01,41,15.60
2018,08,08,01,42,15.60
2018,08,08,01,43,15.60
2018,08,08,01,44,15.60
2018,08,08,01,45,15.60
2018,08,08,01,46,15.50
2018,08,08,01,47,15.50
2018,08,08,01,48,15.50
2018,08,08,01,49,15.50
2018,08,08,01,50,15.50
2018,08,08,01,51,15.50
2018,08,08,01,52,15.50
2018,08,08,01,53,15.40
2018,08,08,01,54,15.40
2018,08,08,01,55,15.40
2018,08,08,01,56,15.40
2018,08,08,01,57,15.40
2018,08,08,01,58,15.40
2018,08,08,01,59,15.40
2018,08,08,02,00,15.40
2018,08,08,02,01,15.30
2018,08,08,02,02,15.30
2018,08,08,02,03,15.30
2018,08,08,02,04,15.30
2018,08,08,02,05,15.30
2018,08,08,02,06,15.30
2018,08,08,02,07,15.30
2018,08,08,02,08,15.30
2018,08,08,02,09,15.30
2018,08,08,02,10,15.30
2018,08,08,02,11,15.30
2018,08,08,02,12,15.30
2018,08,08,02,13,15.30
2018,08,08,02,14,15.30
2018,08,08,02,15,15.30
2018,08,08,02,16,15.30
2018,08,08,02,17,15.30
2018,08,08,02,18,15.30
2018,08,08,02,19,15.30
2018,08,08,02,20,15.30
2018,08,08,02,21,15.30
2018,08,08,02,22,15.30
2018,08,08,02,23,15.30
2018,08,08,02,24,15.30
2018,08,08,02,25,15.30
2018,08,08,02,26,15.30
2018,08,08,02,27,15.30
2018,08,08,02,28,15.30
2018,08,08,02,29,15.30
2018,08,08,02,30,15.30
2018,08,08,02,31,15.30
2018,08,08,02,32,15.30
2018,08,08,02,33,15.30
2018,08,08,02,34,15.30
2018,08,08,02,35,15.30
2018,08,08,02,36,15.30
2018,08,08,02,37,15.30
2018,08,08,02,38,15.20
2018,08,08,02,39,15.20
2018,08,08,02,40,15.20
2018,08,08,02,41,15.20
2018,08,08,02,42,15.20
2018,08,08,02,43,15.20
2018,08,08,02,44,15.10
2018,08,08,02,45,15.10
2018,08,08,02,46,15.10
2018,08,08,02,47,15.10
2018,08,08,02,48,15.00
2018,08,08,02,49,15.00
2018,08,08,02,50,15.00
2018,08,08,02,51,15.00
2018,08,08,02,52,15.00
2018,08,08,02,53,15.00
2018,08,08,02,54,14.90
2018,08,08,02,55,14.90
2018,08,08,02,56,14.90
2018,08,08,02,57,14.90
2018,08,08,02,58,14.80
2018,08,08,02,59,14.80
2018,08,08,03,00,14.80
2018,08,08,03,01,14.80
2018,08,08,03,02,14.80
2018,08,08,03,03,14.80
2018,08,08,03,04,14.80
2018,08,08,03,05,14.80
2018,08,08,03,06,14.80
2018,08,08,03,07,14.80
2018,08,08,03,08,14.80
2018,08,08,03,09,14.80
2018,08,08,03,10,14.80
2018,08,08,03,11,14.80
2018,08,08,03,12,14.80
2018,08,08,03,13,14.80
2018,08,08,03,14,14.80
2018,08,08,03,15,14.80
2018,08,08,03,16,14.80
2018,08,08,03,17,14.80
2018,08,08,03,18,14.80
2018,08,08,03,19,14.80
2018,08,08,03,20,14.80
2018,08,08,03,21,14.80
2018,08,08,03,22,14.80
2018,08,08,03,23,14.80
2018,08,08,03,24,14.80
2018,08,08,03,25,14.80
2018,08,08,03,26,14.80
2018,08,08,03,27,14.70
2018,08,08,03,28,14.70
2018,08,08,03,29,14.70
2018,08,08,03,30,14.70
2018,08,08,03,31,14.70
2018,08,08,03,32,14.70
2018,08,08,03,33,14.70
2018,08,08,03,34,14.60
2018,08,08,03,35,14.60
2018,08,08,03,36,14.60
2018,08,08,03,37,14.60
2018,08,08,03,38,14.50
2018,08,08,03,39,14.50
2018,08,08,03,40,14.50
2018,08,08,03,41,14.50
2018,08,08,03,42,14.50
2018,08,08,03,43,14.40
2018,08,08,03,44,14.40
2018,08,08,03,45,14.40
2018,08,08,03,46,14.40
2018,08,08,03,47,14.50
2018,08,08,03,48,14.50
2018,08,08,03,49,14.50
2018,08,08,03,50,14.40
2018,08,08,03,51,14.50
2018,08,08,03,52,14.40
2018,08,08,03,53,14.40
2018,08,08,03,54,14.40
2018,08,08,03,55,14.40
2018,08,08,03,56,14.40
2018,08,08,03,57,14.40
2018,08,08,03,58,14.40
2018,08,08,03,59,14.30
2018,08,08,04,00,14.30
2018,08,08,04,01,14.30
2018,08,08,04,02,14.20
2018,08,08,04,03,14.20
2018,08,08,04,04,14.20
2018,08,08,04,05,14.20
2018,08,08,04,06,14.20
2018,08,08,04,07,14.20
2018,08,08,04,08,14.20
2018,08,08,04,09,14.20
2018,08,08,04,10,14.20
2018,08,08,04,11,14.20
2018,08,08,04,12,14.20
2018,08,08,04,13,14.20
2018,08,08,04,14,14.20
2018,08,08,04,15,14.20
2018,08,08,04,16,14.20
2018,08,08,04,17,14.20
2018,08,08,04,18,14.20
2018,08,08,04,19,14.20
2018,08,08,04,20,14.20
2018,08,08,04,21,14.20
2018,08,08,04,22,14.20
2018,08,08,04,23,14.20
2018,08,08,04,24,14.20
2018,08,08,04,25,14.20
2018,08,08,04,26,14.20
2018,08,08,04,27,14.20
2018,08,08,04,28,14.20
2018,08,08,04,29,14.10
2018,08,08,04,30,14.10
2018,08,08,04,31,14.10
2018,08,08,04,32,14.10
2018,08,08,04,33,14.10
2018,08,08,04,34,14.10
2018,08,08,04,35,14.10
2018,08,08,04,36,14.00
2018,08,08,04,37,14.00
2018,08,08,04,38,14.00
2018,08,08,04,39,14.00
2018,08,08,04,40,14.00
2018,08,08,04,41,14.00
2018,08,08,04,42,14.00
2018,08,08,04,43,14.00
2018,08,08,04,44,14.00
2018,08,08,04,45,14.00
2018,08,08,04,46,14.00
2018,08,08,04,47,14.00
2018,08,08,04,48,14.00
2018,08,08,04,49,14.00
2018,08,08,04,50,14.00
2018,08,08,04,51,14.00
2018,08,08,04,52,14.00
2018,08,08,04,53,14.00
2018,08,08,04,54,14.00
2018,08,08,04,55,14.00
2018,08,08,04,56,14.00
2018,08,08,04,57,14.00
2018,08,08,04,58,14.00
2018,08,08,04,59,14.00
2018,08,08,05,00,13.90
2018,08,08,05,01,13.90
2018,08,08,05,02,13.90
2018,08,08,05,03,13.90
2018,08,08,05,04,13.90
2018,08,08,05,05,13.90
2018,08,08,05,06,13.90
2018,08,08,05,07,13.90
2018,08,08,05,08,13.90
2018,08,08,05,09,13.90
2018,08,08,05,10,13.90
2018,08,08,05,11,13.90
2018,08,08,05,12,13.90
2018,08,08,05,13,13.90
2018,08,08,05,14,13.90
2018,08,08,05,15,13.90
2018,08,08,05,16,13.80
2018,08,08,05,17,13.80
2018,08,08,05,18,13.80
2018,08,08,05,19,13.80
2018,08,08,05,20,13.90
2018,08,08,05,21,13.90
2018,08,08,05,22,13.90
2018,08,08,05,23,13.90
2018,08,08,05,24,13.90
2018,08,08,05,25,13.90
2018,08,08,05,26,13.90
2018,08,08,05,27,13.90
2018,08,08,05,28,13.90
2018,08,08,05,29,13.90
2018,08,08,05,30,14.00
2018,08,08,05,31,14.00
2018,08,08,05,32,14.00
2018,08,08,05,33,14.00
2018,08,08,05,34,14.00
2018,08,08,05,35,14.00
2018,08,08,05,36,14.10
2018,08,08,05,37,14.10
2018,08,08,05,38,14.10
2018,08,08,05,39,14.10
2018,08,08,05,40,14.10
2018,08,08,05,41,14.20
2018,08,08,05,42,14.20
2018,08,08,05,43,14.10
2018,08,08,05,44,14.10
2018,08,08,05,45,14.00
2018,08,08,05,46,14.00
2018,08,08,05,47,13.90
2018,08,08,05,48,13.90
2018,08,08,05,49,13.80
2018,08,08,05,50,13.80
2018,08,08,05,51,13.70
2018,08,08,05,52,13.70
2018,08,08,05,53,13.70
2018,08,08,05,54,13.70
2018,08,08,05,55,13.70
2018,08,08,05,56,13.70
2018,08,08,05,57,13.70
2018,08,08,05,58,13.70
2018,08,08,05,59,13.70
2018,08,08,06,00,13.70
2018,08,08,06,01,13.70
2018,08,08,06,02,13.70
2018,08,08,06,03,13.70
2018,08,08,06,04,13.70
2018,08,08,06,05,13.70
2018,08,08,06,06,13.70
2018,08,08,06,07,13.80
2018,08,08,06,08,13.80
2018,08,08,06,09,13.70
2018,08,08,06,10,13.70
2018,08,08,06,11,13.70
2018,08,08,06,12,13.70
2018,08,08,06,13,13.70
2018,08,08,06,14,13.70
2018,08,08,06,15,13.60
2018,08,08,06,16,13.60
2018,08,08,06,17,13.60
2018,08,08,06,18,13.60
2018,08,08,06,19,13.60
2018,08,08,06,20,13.60
2018,08,08,06,21,13.60
2018,08,08,06,22,13.60
2018,08,08,06,23,13.60
2018,08,08,06,24,13.60
2018,08,08,06,25,13.60
2018,08,08,06,26,13.60
2018,08,08,06,27,13.60
2018,08,08,06,28,13.70
2018,08,08,06,29,13.70
2018,08,08,06,30,13.70
2018,08,08,06,31,13.70
2018,08,08,06,32,13.70
2018,08,08,06,33,13.80
2018,08,08,06,34,13.80
2018,08,08,06,35,13.80
2018,08,08,06,36,13.80
2018,08,08,06,37,13.80
2018,08,08,06,38,13.90
2018,08,08,06,39,13.90
2018,08,08,06,40,13.90
2018,08,08,06,41,14.00
2018,08,08,06,42,14.10
2018,08,08,06,43,14.20
2018,08,08,06,44,14.20
2018,08,08,06,45,14.30
2018,08,08,06,46,14.40
2018,08,08,06,47,14.40
2018,08,08,06,48,14.50
2018,08,08,06,49,14.60
2018,08,08,06,50,14.60
2018,08,08,06,51,14.70
2018,08,08,06,52,14.70
2018,08,08,06,53,14.80
2018,08,08,06,54,14.80
2018,08,08,06,55,14.80
2018,08,08,06,56,14.80
2018,08,08,06,57,14.80
2018,08,08,06,58,14.80
2018,08,08,06,59,14.80
2018,08,08,07,00,14.80
2018,08,08,07,01,14.80
2018,08,08,07,02,14.80
2018,08,08,07,03,14.90
2018,08,08,07,04,14.90
2018,08,08,07,05,14.90
2018,08,08,07,06,15.00
2018,08,08,07,07,15.00
2018,08,08,07,08,15.00
2018,08,08,07,09,15.00
2018,08,08,07,10,15.10
2018,08,08,07,11,15.10
2018,08,08,07,12,15.10
2018,08,08,07,13,15.10
2018,08,08,07,14,15.10
2018,08,08,07,15,15.10
2018,08,08,07,16,15.10
2018,08,08,07,17,15.10
2018,08,08,07,18,15.20
2018,08,08,07,19,15.20
2018,08,08,07,20,15.20
2018,08,08,07,21,15.30
2018,08,08,07,22,15.30
2018,08,08,07,23,15.30
2018,08,08,07,24,15.30
2018,08,08,07,25,15.30
2018,08,08,07,26,15.40
2018,08,08,07,27,15.50
2018,08,08,07,28,15.50
2018,08,08,07,29,15.60
2018,08,08,07,30,15.60
2018,08,08,07,31,15.70
2018,08,08,07,32,15.80
2018,08,08,07,33,15.90
2018,08,08,07,34,16.00
2018,08,08,07,35,16.10
2018,08,08,07,36,16.20
2018,08,08,07,37,16.30
2018,08,08,07,38,16.40
2018,08,08,07,39,16.50
2018,08,08,07,40,16.60
2018,08,08,07,41,16.70
2018,08,08,07,42,16.80
2018,08,08,07,43,17.00
2018,08,08,07,44,17.10
2018,08,08,07,45,17.30
2018,08,08,07,46,17.40
2018,08,08,07,47,17.50
2018,08,08,07,48,17.60
2018,08,08,07,49,17.70
2018,08,08,07,50,17.70
2018,08,08,07,51,17.80
2018,08,08,07,52,17.80
2018,08,08,07,53,17.90
2018,08,08,07,54,18.00
2018,08,08,07,55,18.10
2018,08,08,07,56,18.20
2018,08,08,07,57,18.30
2018,08,08,07,58,18.40
2018,08,08,07,59,18.40
2018,08,08,08,00,18.40
2018,08,08,08,01,18.50
2018,08,08,08,02,18.60
2018,08,08,08,03,18.60
2018,08,08,08,04,18.70
2018,08,08,08,05,18.80
2018,08,08,08,06,18.90
2018,08,08,08,07,18.90
2018,08,08,08,08,19.00
2018,08,08,08,09,19.10
2018,08,08,08,10,19.10
2018,08,08,08,11,19.20
2018,08,08,08,12,19.20
2018,08,08,08,13,19.20
2018,08,08,08,14,19.30
2018,08,08,08,15,19.30
2018,08,08,08,16,19.30
2018,08,08,08,17,19.40
2018,08,08,08,18,19.40
2018,08,08,08,19,19.40
2018,08,08,08,20,19.40
2018,08,08,08,21,19.30
2018,08,08,08,22,19.20
2018,08,08,08,23,19.10
2018,08,08,08,24,19.00
2018,08,08,08,25,18.80
2018,08,08,08,26,18.70
2018,08,08,08,27,18.60
2018,08,08,08,28,18.60
2018,08,08,08,29,18.60
2018,08,08,08,30,18.60
2018,08,08,08,31,18.60
2018,08,08,08,32,18.50
2018,08,08,08,33,18.50
2018,08,08,08,34,18.40
2018,08,08,08,35,18.40
2018,08,08,08,36,18.40
2018,08,08,08,37,18.30
2018,08,08,08,38,18.30
2018,08,08,08,39,18.40
2018,08,08,08,40,18.40
2018,08,08,08,41,18.40
2018,08,08,08,42,18.50
2018,08,08,08,43,18.50
2018,08,08,08,44,18.60
2018,08,08,08,45,18.60
2018,08,08,08,46,18.60
2018,08,08,08,47,18.70
2018,08,08,08,48,18.80
2018,08,08,08,49,18.90
2018,08,08,08,50,18.90
2018,08,08,08,51,19.00
2018,08,08,08,52,19.10
2018,08,08,08,53,19.10
2018,08,08,08,54,19.30
2018,08,08,08,55,19.30
2018,08,08,08,56,19.40
2018,08,08,08,57,19.50
2018,08,08,08,58,19.60
2018,08,08,08,59,19.80
2018,08,08,09,00,19.90
2018,08,08,09,01,19.90
2018,08,08,09,02,19.90
2018,08,08,09,03,19.90
2018,08,08,09,04,19.90
2018,08,08,09,05,20.10
2018,08,08,09,06,20.10
2018,08,08,09,07,20.10
2018,08,08,09,08,20.00
2018,08,08,09,09,19.90
2018,08,08,09,10,19.90
2018,08,08,09,11,19.90
2018,08,08,09,12,19.90
2018,08,08,09,13,19.90
2018,08,08,09,14,20.00
2018,08,08,09,15,20.10
2018,08,08,09,16,20.20
2018,08,08,09,17,20.20
2018,08,08,09,18,20.20
2018,08,08,09,19,20.30
2018,08,08,09,20,20.40
2018,08,08,09,21,20.40
2018,08,08,09,22,20.50
2018,08,08,09,23,20.50
2018,08,08,09,24,20.70
2018,08,08,09,25,20.80
2018,08,08,09,26,20.80
2018,08,08,09,27,20.90
2018,08,08,09,28,20.90
2018,08,08,09,29,21.00
2018,08,08,09,30,20.90
2018,08,08,09,31,20.80
2018,08,08,09,32,20.70
2018,08,08,09,33,20.60
2018,08,08,09,34,20.50
2018,08,08,09,35,20.50
2018,08,08,09,36,20.50
2018,08,08,09,37,20.60
2018,08,08,09,38,20.70
2018,08,08,09,39,20.80
2018,08,08,09,40,20.90
2018,08,08,09,41,21.00
2018,08,08,09,42,21.00
2018,08,08,09,43,21.20
2018,08,08,09,44,21.30
2018,08,08,09,45,21.50
2018,08,08,09,46,21.60
2018,08,08,09,47,21.80
2018,08,08,09,48,21.80
2018,08,08,09,49,21.90
2018,08,08,09,50,21.90
2018,08,08,09,51,21.80
2018,08,08,09,52,21.80
2018,08,08,09,53,21.90
2018,08,08,09,54,22.00
2018,08,08,09,55,22.00
2018,08,08,09,56,22.20
2018,08,08,09,57,22.20
2018,08,08,09,58,22.20
2018,08,08,09,59,22.10
2018,08,08,10,00,22.30
2018,08,08,10,01,22.30
2018,08,08,10,02,22.20
2018,08,08,10,03,22.20
2018,08,08,10,04,22.20
2018,08,08,10,05,22.20
2018,08,08,10,06,22.10
2018,08,08,10,07,22.10
2018,08,08,10,08,22.10
2018,08,08,10,09,22.10
2018,08,08,10,10,22.10
2018,08,08,10,11,22.10
2018,08,08,10,12,22.00
2018,08,08,10,13,21.90
2018,08,08,10,14,21.80
2018,08,08,10,15,21.70
2018,08,08,10,16,21.60
2018,08,08,10,17,21.60
2018,08,08,10,18,21.60
2018,08,08,10,19,21.60
2018,08,08,10,20,21.70
2018,08,08,10,21,21.70
2018,08,08,10,22,21.70
2018,08,08,10,23,21.90
2018,08,08,10,24,22.00
2018,08,08,10,25,22.10
2018,08,08,10,26,22.20
2018,08,08,10,27,22.30
2018,08,08,10,28,22.40
2018,08,08,10,29,22.60
2018,08,08,10,30,22.60
2018,08,08,10,31,22.70
2018,08,08,10,32,22.80
2018,08,08,10,33,22.80
2018,08,08,10,34,22.80
2018,08,08,10,35,22.80
2018,08,08,10,36,22.80
2018,08,08,10,37,22.80
2018,08,08,10,38,22.80
2018,08,08,10,39,22.90
2018,08,08,10,40,22.90
2018,08,08,10,41,22.90
2018,08,08,10,42,22.90
2018,08,08,10,43,22.90
2018,08,08,10,44,23.00
2018,08,08,10,45,23.10
2018,08,08,10,46,23.20
2018,08,08,10,47,23.30
2018,08,08,10,48,23.30
2018,08,08,10,49,23.30
2018,08,08,10,50,23.30
2018,08,08,10,51,23.30
2018,08,08,10,52,23.30
2018,08,08,10,53,23.40
2018,08,08,10,54,23.50
2018,08,08,10,55,23.70
2018,08,08,10,56,23.80
2018,08,08,10,57,23.90
2018,08,08,10,58,23.90
2018,08,08,10,59,23.90
2018,08,08,11,00,24.00
2018,08,08,11,01,24.10
2018,08,08,11,02,24.20
2018,08,08,11,03,24.30
2018,08,08,11,04,24.30
2018,08,08,11,05,24.40
2018,08,08,11,06,24.40
2018,08,08,11,07,24.50
2018,08,08,11,08,24.50
2018,08,08,11,09,24.60
2018,08,08,11,10,24.60
2018,08,08,11,11,24.60
2018,08,08,11,12,24.50
2018,08,08,11,13,24.50
2018,08,08,11,14,24.50
2018,08,08,11,15,24.60
2018,08,08,11,16,24.80
2018,08,08,11,17,24.90
2018,08,08,11,18,25.00
2018,08,08,11,19,25.00
2018,08,08,11,20,25.00
2018,08,08,11,21,25.00
2018,08,08,11,22,25.00
2018,08,08,11,23,25.10
2018,08,08,11,24,25.20
2018,08,08,11,25,25.20
2018,08,08,11,26,25.20
2018,08,08,11,27,25.20
2018,08,08,11,28,25.20
2018,08,08,11,29,25.10
2018,08,08,11,30,25.00
2018,08,08,11,31,24.90
2018,08,08,11,32,24.80
2018,08,08,11,33,24.70
2018,08,08,11,34,24.70
2018,08,08,11,35,24.70
2018,08,08,11,36,24.70
2018,08,08,11,37,24.60
2018,08,08,11,38,24.60
2018,08,08,11,39,24.60
2018,08,08,11,40,24.60
2018,08,08,11,41,24.60
2018,08,08,11,42,24.70
2018,08,08,11,43,24.70
2018,08,08,11,44,24.60
2018,08,08,11,45,24.50
2018,08,08,11,46,24.50
2018,08,08,11,47,24.40
2018,08,08,11,48,24.40
2018,08,08,11,49,24.50
2018,08,08,11,50,24.50
2018,08,08,11,51,24.50
2018,08,08,11,52,24.50
2018,08,08,11,53,24.40
2018,08,08,11,54,24.30
2018,08,08,11,55,24.30
2018,08,08,11,56,24.30
2018,08,08,11,57,24.20
2018,08,08,11,58,24.10
2018,08,08,11,59,24.00
2018,08,08,12,00,23.90
2018,08,08,12,01,23.90
2018,08,08,12,02,23.90
2018,08,08,12,03,24.00
2018,08,08,12,04,24.10
2018,08,08,12,05,24.10
2018,08,08,12,06,24.10
2018,08,08,12,07,24.10
2018,08,08,12,08,24.20
2018,08,08,12,09,24.20
2018,08,08,12,10,24.20
2018,08,08,12,11,24.20
2018,08,08,12,12,24.10
2018,08,08,12,13,24.10
2018,08,08,12,14,24.20
2018,08,08,12,15,24.20
2018,08,08,12,16,24.30
2018,08,08,12,17,24.20
2018,08,08,12,18,24.20
2018,08,08,12,19,24.20
2018,08,08,12,20,24.20
2018,08,08,12,21,24.20
2018,08,08,12,22,24.20
2018,08,08,12,23,24.20
2018,08,08,12,24,24.30
2018,08,08,12,25,24.40
2018,08,08,12,26,24.40
2018,08,08,12,27,24.40
2018,08,08,12,28,24.40
2018,08,08,12,29,24.40
2018,08,08,12,30,24.50
2018,08,08,12,31,24.70
2018,08,08,12,32,24.80
2018,08,08,12,33,24.90
2018,08,08,12,34,25.00
2018,08,08,12,35,25.10
2018,08,08,12,36,25.10
2018,08,08,12,37,25.10
2018,08,08,12,38,25.10
2018,08,08,12,39,25.10
2018,08,08,12,40,25.20
2018,08,08,12,41,25.20
2018,08,08,12,42,25.20
2018,08,08,12,43,25.30
2018,08,08,12,44,25.30
2018,08,08,12,45,25.40
2018,08,08,12,46,25.40
2018,08,08,12,47,25.50
2018,08,08,12,48,25.50
2018,08,08,12,49,25.50
2018,08,08,12,50,25.60
2018,08,08,12,51,25.70
2018,08,08,12,52,25.70
2018,08,08,12,53,25.70
2018,08,08,12,54,25.80
2018,08,08,12,55,25.80
2018,08,08,12,56,25.80
2018,08,08,12,57,25.80
2018,08,08,12,58,25.80
2018,08,08,12,59,25.80
2018,08,08,13,00,25.90
2018,08,08,13,01,25.90
2018,08,08,13,02,26.00
2018,08,08,13,03,26.10
2018,08,08,13,04,26.20
2018,08,08,13,05,26.20
2018,08,08,13,06,26.20
2018,08,08,13,07,26.30
2018,08,08,13,08,26.30
2018,08,08,13,09,26.40
2018,08,08,13,10,26.50
2018,08,08,13,11,26.50
2018,08,08,13,12,26.60
2018,08,08,13,13,26.60
2018,08,08,13,14,26.60
2018,08,08,13,15,26.60
2018,08,08,13,16,26.60
2018,08,08,13,17,26.60
2018,08,08,13,18,26.60
2018,08,08,13,19,26.60
2018,08,08,13,20,26.60
2018,08,08,13,21,26.50
2018,08,08,13,22,26.40
2018,08,08,13,23,26.40
2018,08,08,13,24,26.40
2018,08,08,13,25,26.30
2018,08,08,13,26,26.30
2018,08,08,13,27,26.20
2018,08,08,13,28,26.20
2018,08,08,13,29,26.20
2018,08,08,13,30,26.20
2018,08,08,13,31,26.20
2018,08,08,13,32,26.40
2018,08,08,13,33,26.50
2018,08,08,13,34,26.60
2018,08,08,13,35,26.70
2018,08,08,13,36,26.70
2018,08,08,13,37,26.70
2018,08,08,13,38,26.80
2018,08,08,13,39,26.80
2018,08,08,13,40,26.80
2018,08,08,13,41,26.90
2018,08,08,13,42,26.90
2018,08,08,13,43,26.90
2018,08,08,13,44,26.90
2018,08,08,13,45,26.90
2018,08,08,13,46,26.80
2018,08,08,13,47,26.80
2018,08,08,13,48,26.70
2018,08,08,13,49,26.70
2018,08,08,13,50,26.70
2018,08,08,13,51,26.70
2018,08,08,13,52,26.70
2018,08,08,13,53,26.80
2018,08,08,13,54,26.70
2018,08,08,13,55,26.70
2018,08,08,13,56,26.70
2018,08,08,13,57,26.70
2018,08,08,13,58,26.70
2018,08,08,13,59,26.70
2018,08,08,14,00,26.70
2018,08,08,14,01,26.70
2018,08,08,14,02,26.70
2018,08,08,14,03,26.60
2018,08,08,14,04,26.50
2018,08,08,14,05,26.40
2018,08,08,14,06,26.40
2018,08,08,14,07,26.40
2018,08,08,14,08,26.40
2018,08,08,14,09,26.40
2018,08,08,14,10,26.50
2018,08,08,14,11,26.60
2018,08,08,14,12,26.50
2018,08,08,14,13,26.40
2018,08,08,14,14,26.40
2018,08,08,14,15,26.50
2018,08,08,14,16,26.60
2018,08,08,14,17,26.70
2018,08,08,14,18,26.80
2018,08,08,14,19,26.90
2018,08,08,14,20,27.00
2018,08,08,14,21,27.20
2018,08,08,14,22,27.30
2018,08,08,14,23,27.50
2018,08,08,14,24,27.60
2018,08,08,14,25,27.70
2018,08,08,14,26,27.80
2018,08,08,14,27,27.80
2018,08,08,14,28,27.80
2018,08,08,14,29,27.70
2018,08,08,14,30,27.50
2018,08,08,14,31,27.40
2018,08,08,14,32,27.30
2018,08,08,14,33,27.30
2018,08,08,14,34,27.30
2018,08,08,14,35,27.30
2018,08,08,14,36,27.30
2018,08,08,14,37,27.30
2018,08,08,14,38,27.40
2018,08,08,14,39,27.60
2018,08,08,14,40,27.60
2018,08,08,14,41,27.70
2018,08,08,14,42,27.80
2018,08,08,14,43,27.80
2018,08,08,14,44,27.80
2018,08,08,14,45,27.80
2018,08,08,14,46,27.80
2018,08,08,14,47,27.80
2018,08,08,14,48,27.80
2018,08,08,14,49,27.80
2018,08,08,14,50,27.80
2018,08,08,14,51,27.80
2018,08,08,14,52,27.90
2018,08,08,14,53,27.90
2018,08,08,14,54,27.80
2018,08,08,14,55,27.70
2018,08,08,14,56,27.60
2018,08,08,14,57,27.60
2018,08,08,14,58,27.60
2018,08,08,14,59,27.60
2018,08,08,15,00,27.70
2018,08,08,15,01,27.80
2018,08,08,15,02,27.80
2018,08,08,15,03,27.90
2018,08,08,15,04,27.90
2018,08,08,15,05,28.00
2018,08,08,15,06,28.00
2018,08,08,15,07,28.00
2018,08,08,15,08,27.90
2018,08,08,15,09,27.80
2018,08,08,15,10,27.80
2018,08,08,15,11,27.70
2018,08,08,15,12,27.70
2018,08,08,15,13,27.70
2018,08,08,15,14,27.70
2018,08,08,15,15,27.70
2018,08,08,15,16,27.60
2018,08,08,15,17,27.50
2018,08,08,15,18,27.30
2018,08,08,15,19,27.30
2018,08,08,15,20,27.20
2018,08,08,15,21,27.10
2018,08,08,15,22,27.10
2018,08,08,15,23,27.10
2018,08,08,15,24,27.10
2018,08,08,15,25,27.00
2018,08,08,15,26,26.90
2018,08,08,15,27,26.80
2018,08,08,15,28,26.90
2018,08,08,15,29,27.00
2018,08,08,15,30,27.10
2018,08,08,15,31,27.20
2018,08,08,15,32,27.20
2018,08,08,15,33,27.30
2018,08,08,15,34,27.50
2018,08,08,15,35,27.60
2018,08,08,15,36,27.70
2018,08,08,15,37,27.80
2018,08,08,15,38,27.80
2018,08,08,15,39,27.90
2018,08,08,15,40,27.90
2018,08,08,15,41,27.90
2018,08,08,15,42,27.90
2018,08,08,15,43,28.00
2018,08,08,15,44,28.00
2018,08,08,15,45,28.20
2018,08,08,15,46,28.30
2018,08,08,15,47,28.40
2018,08,08,15,48,28.40
2018,08,08,15,49,28.50
2018,08,08,15,50,28.60
2018,08,08,15,51,28.60
2018,08,08,15,52,28.60
2018,08,08,15,53,28.60
2018,08,08,15,54,28.60
2018,08,08,15,55,28.60
2018,08,08,15,56,28.50
2018,08,08,15,57,28.30
2018,08,08,15,58,28.10
2018,08,08,15,59,27.80
2018,08,08,16,00,27.60
2018,08,08,16,01,27.40
2018,08,08,16,02,27.30
2018,08,08,16,03,27.20
2018,08,08,16,04,27.10
2018,08,08,16,05,27.00
2018,08,08,16,06,26.80
2018,08,08,16,07,26.70
2018,08,08,16,08,26.60
2018,08,08,16,09,26.50
2018,08,08,16,10,26.40
2018,08,08,16,11,26.30
2018,08,08,16,12,26.20
2018,08,08,16,13,26.20
2018,08,08,16,14,26.20
2018,08,08,16,15,26.30
2018,08,08,16,16,26.30
2018,08,08,16,17,26.40
2018,08,08,16,18,26.40
2018,08,08,16,19,26.50
2018,08,08,16,20,26.60
2018,08,08,16,21,26.60
2018,08,08,16,22,26.60
2018,08,08,16,23,26.60
2018,08,08,16,24,26.60
2018,08,08,16,25,26.60
2018,08,08,16,26,26.60
2018,08,08,16,27,26.60
2018,08,08,16,28,26.50
2018,08,08,16,29,26.40
2018,08,08,16,30,26.40
2018,08,08,16,31,26.40
2018,08,08,16,32,26.40
2018,08,08,16,33,26.40
2018,08,08,16,34,26.50
2018,08,08,16,35,26.60
2018,08,08,16,36,26.60
2018,08,08,16,37,26.60
2018,08,08,16,38,26.60
2018,08,08,16,39,26.60
2018,08,08,16,40,26.60
2018,08,08,16,41,26.60
2018,08,08,16,42,26.50
2018,08,08,16,43,26.40
2018,08,08,16,44,26.20
2018,08,08,16,45,25.90
2018,08,08,16,46,25.80
2018,08,08,16,47,25.60
2018,08,08,16,48,25.40
2018,08,08,16,49,25.30
2018,08,08,16,50,25.20
2018,08,08,16,51,25.10
2018,08,08,16,52,24.90
2018,08,08,16,53,24.80
2018,08,08,16,54,24.70
2018,08,08,16,55,24.50
2018,08,08,16,56,24.50
2018,08,08,16,57,24.40
2018,08,08,16,58,24.40
2018,08,08,16,59,24.40
2018,08,08,17,00,24.40
2018,08,08,17,01,24.40
2018,08,08,17,02,24.40
2018,08,08,17,03,24.40
2018,08,08,17,04,24.40
2018,08,08,17,05,24.30
2018,08,08,17,06,24.10
2018,08,08,17,07,24.10
2018,08,08,17,08,24.10
2018,08,08,17,09,24.10
2018,08,08,17,10,24.10
2018,08,08,17,11,24.10
2018,08,08,17,12,24.10
2018,08,08,17,13,24.10
2018,08,08,17,14,24.10
2018,08,08,17,15,24.10
2018,08,08,17,16,24.20
2018,08,08,17,17,24.20
2018,08,08,17,18,24.20
2018,08,08,17,19,24.20